Tracking 29747 objects as of 10-Oct-2024
HD Live streaming from Space Station
objects crossing your sky now

STARLINK-30944

Track STARLINK-30944 now!
10-day predictions
STARLINK-30944 is classified as:


NORAD ID: 58451
Int'l Code: 2023-183Q
Perigee: 565.0 km
Apogee: 567.0 km
Inclination: 43.0 °
Period: 95.8 minutes
Semi major axis: 6937 km
RCS: Unknown
Launch date: November 28, 2023
Source: United States (US)
Launch site: AIR FORCE EASTERN TEST RANGE (AFETR)
Your satellite tracking list
Your tracking list is empty




NASA's NSSDC Master Catalog

Two Line Element Set (TLE):
1 58451U 23183Q   24283.85548220 -.00017439  00000-0 -12768-2 0  9995
2 58451  42.9999 325.8515 0001405 247.1265 112.9429 15.02602218 49090
Source of the keplerian elements: AFSPC